Location: Griffin Ranch
(33.6186°N, 110.6622°W)
Time: 06:07:25
(UTC-07:00)

Cosmos 1812 - Visible Passes

Search period start: 30 August 2016 00:00
Search period end: 09 September 2016 00:00
Orbit: 521 x 527 km, 82.5° (Epoch: 29 August)

Date Brightness Start Highest point End Pass type
(mag) Time Alt. Az. Time Alt. Az. Time Alt. Az.
06 Sep 3.7 05:34:55 10° S 05:38:40 53° E 05:42:26 10° NNE visible
07 Sep 4.0 05:22:37 10° SSE 05:26:18 45° E 05:30:00 10° NNE visible
08 Sep 4.3 05:10:21 10° SSE 05:13:56 39° E 05:17:33 10° NNE visible
